K5RNB Weather Reports


Display with metric or nautical units.
time (UTC)temp
F
wind
direction
speed
MPH
gust
MPH
rain 1hr
in
rain 24hr
in
rain mn
in
humidity
%
barometer
mb
20260504012958 72 182 6.0 9.0 0.00 0.00 0.00 47 1013.7
20260504011957 72 181 5.0 7.0 0.00 0.00 0.00 47 1013.8
20260504011459 73 188 5.0 9.0 0.00 0.00 0.00 47 1013.7
20260504010957 73 184 5.0 9.0 0.00 0.00 0.00 46 1013.7
20260504010458 73 183 6.0 9.0 0.00 0.00 0.00 45 1013.7
20260504005958 74 184 6.0 10.0 0.00 0.00 0.00 45 1013.7
20260504004957 75 185 7.0 10.0 0.00 0.00 0.00 43 1013.5
20260504004457 75 187 7.0 13.0 0.00 0.00 0.00 43 1013.5
20260504003959 76 186 8.0 15.0 0.00 0.00 0.00 42 1013.6
20260504003458 76 195 10.0 16.0 0.00 0.00 0.00 41 1013.6
20260504003000 77 186 7.0 16.0 0.00 0.00 0.00 41 1013.6
20260504002457 77 187 9.0 16.0 0.00 0.00 0.00 41 1013.7
20260504001457 77 190 7.0 12.0 0.00 0.00 0.00 41 1013.7
20260503235958 78 194 6.0 13.0 0.00 0.00 0.00 41 1013.8
20260503234458 79 190 6.0 13.0 0.00 0.00 0.00 39 1013.9
20260503233958 79 206 9.0 17.0 0.00 0.00 0.00 38 1014.1
20260503233458 79 214 10.0 17.0 0.00 0.00 0.00 37 1014.0
20260503232958 79 215 8.0 16.0 0.00 0.00 0.00 36 1014.0
20260503232457 79 214 9.0 17.0 0.00 0.00 0.00 35 1014.0
20260503232000 80 213 13.0 17.0 0.00 0.00 0.00 35 1014.1
20260503231458 80 237 7.0 17.0 0.00 0.00 0.00 35 1014.1
20260503230958 80 217 9.0 17.0 0.00 0.00 0.00 34 1014.1
20260503230458 80 215 10.0 17.0 0.00 0.00 0.00 34 1014.2
20260503225459 80 205 8.0 20.0 0.00 0.00 0.00 35 1014.3
20260503224959 80 191 14.0 20.0 0.00 0.00 0.00 34 1014.2
20260503223958 80 219 12.0 21.0 0.00 0.00 0.00 33 1014.3
20260503222958 81 207 12.0 18.0 0.00 0.00 0.00 33 1014.4
20260503222458 81 208 9.0 18.0 0.00 0.00 0.00 35 1014.4
20260503222000 81 232 10.0 16.0 0.00 0.00 0.00 34 1014.6
20260503221459 81 228 9.0 16.0 0.00 0.00 0.00 35 1014.5
20260503215958 81 256 10.0 15.0 0.00 0.00 0.00 36 1014.7
20260503215459 81 221 10.0 16.0 0.00 0.00 0.00 36 1014.7
20260503214959 81 210 10.0 18.0 0.00 0.00 0.00 36 1014.8
20260503214500 81 191 13.0 18.0 0.00 0.00 0.00 34 1014.8
20260503213959 81 229 6.0 17.0 0.00 0.00 0.00 37 1014.8
20260503213458 81 239 9.0 17.0 0.00 0.00 0.00 34 1015.0
20260503212959 82 206 6.0 12.0 0.00 0.00 0.00 35 1015.1
20260503212458 82 238 8.0 13.0 0.00 0.00 0.00 35 1015.3
20260503211459 82 224 10.0 15.0 0.00 0.00 0.00 36 1015.3
20260503210459 82 235 6.0 15.0 0.00 0.00 0.00 39 1015.5
20260503205959 81 199 7.0 17.0 0.00 0.00 0.00 40 1015.7
20260503205459 80 205 11.0 17.0 0.00 0.00 0.00 37 1015.8
20260503204458 81 242 10.0 16.0 0.00 0.00 0.00 37 1016.0
20260503203500 81 226 6.0 14.0 0.00 0.00 0.00 35 1016.2
20260503202959 81 211 8.0 12.0 0.00 0.00 0.00 37 1016.2
20260503202459 81 211 8.0 15.0 0.00 0.00 0.00 36 1016.3
20260503201459 81 227 12.0 18.0 0.00 0.00 0.00 37 1016.6
20260503200959 81 205 9.0 20.0 0.00 0.00 0.00 37 1016.6
20260503200459 81 218 12.0 20.0 0.00 0.00 0.00 38 1016.7
20260503200000 81 237 6.0 15.0 0.00 0.00 0.00 41 1016.7
20260503195459 81 230 7.0 15.0 0.00 0.00 0.00 41 1016.8
20260503195000 80 220 7.0 18.0 0.00 0.00 0.00 39 1016.9
20260503194500 80 219 12.0 18.0 0.00 0.00 0.00 36 1017.0
20260503194000 80 209 7.0 17.0 0.00 0.00 0.00 41 1017.0
20260503192959 81 218 7.0 15.0 0.00 0.00 0.00 41 1017.2
20260503192459 80 217 8.0 15.0 0.00 0.00 0.00 39 1017.4
20260503192000 80 228 7.0 14.0 0.00 0.00 0.00 41 1017.4
20260503191459 80 239 7.0 13.0 0.00 0.00 0.00 39 1017.4
20260503191001 80 220 7.0 15.0 0.00 0.00 0.00 41 1017.5
20260503190459 80 228 9.0 17.0 0.00 0.00 0.00 40 1017.6
20260503190000 80 240 10.0 17.0 0.00 0.00 0.00 40 1017.7
20260503185500 79 228 8.0 17.0 0.00 0.00 0.00 41 1017.7
20260503184500 79 255 9.0 18.0 0.00 0.00 0.00 41 1017.9
20260503184000 79 241 10.0 18.0 0.00 0.00 0.00 43 1017.9
20260503183500 79 235 9.0 20.0 0.00 0.00 0.00 43 1018.0
20260503183000 79 224 10.0 20.0 0.00 0.00 0.00 42 1018.0
20260503181459 79 227 11.0 20.0 0.00 0.00 0.00 44 1018.4
20260503181000 79 223 8.0 18.0 0.00 0.00 0.00 45 1018.5
20260503180501 79 230 12.0 20.0 0.00 0.00 0.00 44 1018.5
20260503180000 79 215 6.0 20.0 0.00 0.00 0.00 48 1018.5
20260503175500 79 215 8.0 17.0 0.00 0.00 0.00 48 1018.7
20260503174500 78 231 10.0 17.0 0.00 0.00 0.00 46 1018.9
20260503174001 78 229 7.0 18.0 0.00 0.00 0.00 49 1018.9
20260503173002 78 229 9.0 17.0 0.00 0.00 0.00 46 1019.0
20260503172001 78 230 11.0 17.0 0.00 0.00 0.00 48 1019.2
20260503171501 78 236 10.0 16.0 0.00 0.00 0.00 48 1019.3
20260503170500 78 223 5.0 14.0 0.00 0.00 0.00 52 1019.4
20260503151001 71 230 12.0 17.0 0.00 0.00 0.00 58 1019.9
20260503131002 57 180 2.0 3.0 0.00 0.00 0.00 87 1019.8
20260503130503 56 258 2.0 3.0 0.00 0.00 0.00 88 1019.8
20260503110502 50 268 1.0 2.0 0.00 0.00 0.00 90 1018.9
20260503090503 49 268 0.0 0.0 0.00 0.00 0.00 89 1018.9
20260503081505 50 268 0.0 0.0 0.00 0.00 0.00 88 1019.1
20260503081004 50 268 0.0 0.0 0.00 0.00 0.00 88 1018.9
20260503080503 51 268 0.0 0.0 0.00 0.00 0.00 88 1018.9
20260503072503 52 268 0.0 0.0 0.00 0.00 0.00 88 1019.1
20260503072005 52 268 0.0 0.0 0.00 0.00 0.00 88 1019.3
20260503071506 52 268 0.0 0.0 0.00 0.00 0.00 88 1019.1
20260503070505 52 268 0.0 0.0 0.00 0.00 0.00 88 1019.1
20260503054906 52 268 0.0 1.0 0.00 0.00 0.00 87 1018.8
20260503054404 52 268 0.0 0.0 0.00 0.00 0.00 87 1019.1
20260503053906 52 268 0.0 0.0 0.00 0.00 0.00 87 1018.8
20260503053405 52 268 0.0 0.0 0.00 0.00 0.00 87 1018.8
20260503052906 53 268 0.0 0.0 0.00 0.00 0.00 87 1019.1
20260503052405 53 268 0.0 0.0 0.00 0.00 0.00 87 1018.8
20260503051904 53 268 0.0 0.0 0.00 0.00 0.00 87 1018.8
20260503051405 53 268 0.0 0.0 0.00 0.00 0.00 86 1019.0
20260503050905 53 268 0.0 0.0 0.00 0.00 0.00 86 1018.7
20260503050406 53 268 0.0 0.0 0.00 0.00 0.00 86 1018.6
20260503045906 54 268 0.0 0.0 0.00 0.00 0.00 86 1018.9
20260503045405 54 268 0.0 0.0 0.00 0.00 0.00 86 1018.7
20260503044907 54 268 0.0 0.0 0.00 0.00 0.00 86 1018.6
20260503044405 54 268 0.0 0.0 0.00 0.00 0.00 86 1018.9
20260503043905 54 268 0.0 0.0 0.00 0.00 0.00 86 1018.7
20260503042905 55 268 0.0 0.0 0.00 0.00 0.00 85 1018.6
20260503042405 55 268 0.0 0.0 0.00 0.00 0.00 85 1018.7
20260503041906 55 268 0.0 0.0 0.00 0.00 0.00 85 1018.6
20260503041405 55 268 0.0 0.0 0.00 0.00 0.00 85 1018.8
20260503040406 56 268 0.0 0.0 0.00 0.00 0.00 84 1018.6
20260503035905 56 268 0.0 0.0 0.00 0.00 0.00 84 1018.6
20260503034905 56 268 0.0 0.0 0.00 0.00 0.00 83 1018.5
20260503034407 56 268 0.0 0.0 0.00 0.00 0.00 83 1018.8
20260503033406 57 268 0.0 0.0 0.00 0.00 0.00 82 1018.5
20260503032906 57 268 0.0 0.0 0.00 0.00 0.00 81 1018.5
20260503031906 58 268 0.0 0.0 0.00 0.00 0.00 80 1018.5
20260503031405 59 268 0.0 0.0 0.00 0.00 0.00 80 1018.6
20260503030405 59 268 0.0 0.0 0.00 0.00 0.00 79 1018.4
20260503025906 60 268 0.0 0.0 0.00 0.00 0.00 79 1018.4
20260503025406 60 268 0.0 0.0 0.00 0.00 0.00 78 1018.5
20260503024906 61 268 0.0 0.0 0.00 0.00 0.00 77 1018.2
20260503023906 61 268 0.0 0.0 0.00 0.00 0.00 76 1018.1
20260503022907 62 268 0.0 0.0 0.00 0.00 0.00 74 1018.1
20260503021406 63 268 0.0 0.0 0.00 0.00 0.00 70 1018.0
20260503020906 64 268 0.0 0.0 0.00 0.00 0.00 70 1017.9
20260503020406 65 268 0.0 0.0 0.00 0.00 0.00 69 1017.9
20260503015906 65 268 0.0 0.0 0.00 0.00 0.00 68 1017.8
20260503015405 66 268 0.0 2.0 0.00 0.00 0.00 66 1017.9
20260503014906 66 268 1.0 2.0 0.00 0.00 0.00 64 1017.8
20260503014408 67 268 1.0 2.0 0.00 0.00 0.00 63 1017.8
20260503013906 67 268 1.0 3.0 0.00 0.00 0.00 62 1017.8